Tacoma, WA
on Friday, December 21, 2012

Friday
Previous Day Next Day
Daily Summary
 ActualAverage (KSEA)Record (KSEA)
Temperature
Mean Temperature °F 40°F  
Max Temperature 46°F 45°F 56°F (2005)
Min Temperature 24°F 35°F 12°F (1990)
Degree Days
Heating Degree Days 30 25  
Month to date heating degree days 510  
Since 1 July heating degree days 1693  
Cooling Degree Days 0 0  
Month to date cooling degree days 0  
Year to date cooling degree days 189  
Moisture
Dew Point 30°F   
Average Humidity 98    
Maximum Humidity 100    
Minimum Humidity 77    
Precipitation
Precipitation 0.01 in 0.17 in 0.99 in (1964)
Month to date precipitation 3.69  
Year to date precipitation 35.83  
Snow
Snow 0.00 in in 3.00 in (2008)
Month to date snowfall  
Since 1 July snowfall  
Snow Depth in   
Wind
Wind Speed 2 mph   
Max Wind Speed 6 mph   
Max Gust Speed mph   
Visibility 5 miles   
Events Fog , Rain   

Key: T is trace of precipitation, MM is missing value
Source: NWS Daily Summary
Time(PST)TemperatureDew PointHumidity Pressure Visibility Wind DirectionWind SpeedGust SpeedPrecipitationEvents Conditions
12:08 AM 28.4°F 28.4°F 100% 29.81 in 0.8 miles SE 2.3 mph - N/A   Clear
12:13 AM 26.6°F 26.6°F 100% 29.81 in 0.5 miles ESE 1.2 mph - N/A Fog Light Freezing Fog
12:18 AM 26.6°F 26.6°F 100% 29.81 in 0.5 miles ENE 2.3 mph - N/A Fog Light Freezing Fog
12:23 AM 26.6°F 26.6°F 100% 29.81 in 0.8 miles NE 2.3 mph - N/A   Clear
12:33 AM 26.6°F 26.6°F 100% 29.81 in 0.5 miles Calm Calm - N/A Fog Light Freezing Fog
12:38 AM 26.6°F 26.6°F 100% 29.81 in 0.5 miles Calm Calm - N/A Fog Light Freezing Fog
12:43 AM 26.6°F 26.6°F 100% 29.81 in 0.8 miles East 1.2 mph - N/A   Clear
12:48 AM 26.6°F 26.6°F 100% 29.81 in 1.0 miles Calm Calm - N/A   Clear
12:53 AM 24.8°F 24.8°F 100% 29.81 in 1.2 miles Calm Calm - N/A   Clear
12:58 AM 25.5°F 25.0°F 98% 29.82 in 1.2 miles Calm Calm - N/A   Clear
1:03 AM 26.6°F 26.6°F 100% 29.80 in 0.8 miles Calm Calm - N/A   Clear
1:08 AM 26.6°F 26.6°F 100% 29.80 in 0.5 miles South 1.2 mph - N/A Fog Light Freezing Fog
1:13 AM 26.6°F 26.6°F 100% 29.80 in 0.5 miles South 2.3 mph - N/A Fog Light Freezing Fog
1:18 AM 26.6°F 26.6°F 100% 29.80 in 0.2 miles SSW 1.2 mph - N/A Fog Light Freezing Fog
1:28 AM 26.6°F 26.6°F 100% 29.80 in 0.2 miles South 1.2 mph - N/A Fog Light Freezing Fog
1:33 AM 26.6°F 26.6°F 100% 29.80 in 0.5 miles South 1.2 mph - N/A Fog Light Freezing Fog
1:38 AM 26.6°F 26.6°F 100% 29.79 in 0.5 miles SE 2.3 mph - N/A Fog Light Freezing Fog
1:43 AM 26.6°F 24.8°F 93% 29.79 in 0.5 miles SE 2.3 mph - N/A Fog Light Freezing Fog
1:58 AM 26.6°F 24.8°F 93% 29.81 in 0.5 miles SSE 2.3 mph - N/A Fog Light Freezing Fog
2:03 AM 26.6°F 26.6°F 100% 29.79 in 0.2 miles ESE 1.2 mph - N/A Fog Light Freezing Fog
2:08 AM 26.6°F 24.8°F 93% 29.79 in 0.2 miles East 2.3 mph - N/A Fog Light Freezing Fog
2:13 AM 24.8°F 24.8°F 100% 29.79 in 0.5 miles East 2.3 mph - N/A Fog Light Freezing Fog
2:18 AM 26.6°F 24.8°F 93% 29.79 in 1.2 miles East 2.3 mph - N/A   Clear
2:23 AM 26.6°F 26.6°F 100% 29.79 in 4.0 miles East 2.3 mph - N/A   Clear
2:58 AM 28.4°F 26.6°F 93% 29.80 in 2.5 miles NE 1.2 mph - N/A   Clear
3:03 AM 26.6°F 26.6°F 100% 29.78 in 1.0 miles Calm Calm - N/A   Clear
3:13 AM 26.6°F 26.6°F 100% 29.77 in 1.2 miles NE 2.3 mph - N/A   Clear
3:18 AM 26.6°F 24.8°F 93% 29.77 in 1.8 miles East 1.2 mph - N/A   Clear
3:23 AM 26.6°F 24.8°F 93% 29.77 in 4.0 miles SE 2.3 mph - N/A   Clear
3:38 AM 26.6°F 24.8°F 93% 29.77 in 2.0 miles East 2.3 mph - N/A   Clear
3:43 AM 26.6°F 26.6°F 100% 29.77 in 3.0 miles ENE 1.2 mph - N/A   Clear
3:48 AM 26.6°F 26.6°F 100% 29.77 in 5.0 miles Calm Calm - N/A   Clear
3:58 AM 27.0°F 26.4°F 98% 29.79 in 8.0 miles Calm Calm - N/A   Clear
4:58 AM 28.8°F 28.4°F 99% 29.75 in 10.0 miles ENE 1.2 mph - N/A   Clear
5:58 AM 29.5°F 29.3°F 99% 29.76 in 10.0 miles Variable 2.3 mph - N/A   Scattered Clouds
6:03 AM 30.2°F 30.2°F 100% 29.75 in 10.0 miles SE 2.3 mph - N/A   Partly Cloudy
6:18 AM 32.0°F 32.0°F 100% 29.74 in 10.0 miles Calm Calm - N/A   Scattered Clouds
6:21 AM 32.0°F 32.0°F 100% 29.74 in 10.0 miles Variable 2.3 mph - N/A   Scattered Clouds
6:41 AM 32.0°F 32.0°F 100% 29.73 in 10.0 miles Calm Calm - N/A   Mostly Cloudy
6:58 AM 31.3°F 31.1°F 99% 29.75 in 10.0 miles Calm Calm - 0.00 in   Overcast
7:58 AM 31.3°F 31.1°F 99% 29.74 in 10.0 miles East 1.2 mph - N/A   Overcast
8:58 AM 32.0°F 31.8°F 99% 29.75 in 10.0 miles Calm Calm - N/A   Overcast
9:23 AM 32.0°F 32.0°F 100% 29.74 in 10.0 miles South 3.5 mph - N/A Rain Light Rain
9:53 AM 32.0°F 32.0°F 100% 29.74 in 10.0 miles West 1.2 mph - N/A   Overcast
9:58 AM 32.5°F 32.2°F 99% 29.76 in 10.0 miles West 2.3 mph - 0.00 in   Overcast
10:58 AM 36.5°F 36.3°F 99% 29.77 in 10.0 miles WSW 4.6 mph - N/A   Overcast
11:58 AM 39.2°F 36.9°F 91% 29.77 in 10.0 miles NW 3.5 mph - N/A   Overcast
12:58 PM 43.0°F 37.2°F 80% 29.76 in 10.0 miles NNE 1.2 mph - N/A   Mostly Cloudy
1:58 PM 46.0°F 39.2°F 77% 29.75 in 10.0 miles NW 5.8 mph - N/A   Overcast
2:58 PM 43.9°F 38.8°F 82% 29.75 in 10.0 miles ENE 5.8 mph - N/A   Mostly Cloudy
3:58 PM 40.1°F 37.0°F 89% 29.75 in 10.0 miles East 1.2 mph - N/A   Clear
4:58 PM 37.4°F 37.0°F 99% 29.74 in 10.0 miles Calm Calm - N/A   Scattered Clouds
5:58 PM 35.2°F 35.1°F 99% 29.72 in 1.5 miles South 3.5 mph - N/A   Scattered Clouds
6:08 PM 33.8°F 32.0°F 93% 29.70 in 4.0 miles East 2.3 mph - N/A   Mostly Cloudy
6:23 PM 33.8°F 33.8°F 100% 29.70 in 3.0 miles Calm Calm - N/A   Scattered Clouds
6:28 PM 35.6°F 35.6°F 100% 29.70 in 4.0 miles SSE 2.3 mph - N/A   Mostly Cloudy
6:38 PM 33.8°F 33.8°F 100% 29.69 in 2.5 miles Calm Calm - N/A   Mostly Cloudy
6:43 PM 35.6°F 35.6°F 100% 29.69 in 3.0 miles East 2.3 mph - N/A   Mostly Cloudy
6:58 PM 35.1°F 34.9°F 99% 29.70 in 6.0 miles Calm Calm - N/A   Overcast
7:58 PM 36.7°F 36.3°F 99% 29.70 in 10.0 miles South 3.5 mph - N/A   Mostly Cloudy
8:58 PM 36.3°F 36.0°F 99% 29.71 in 9.0 miles East 3.5 mph - N/A   Overcast
9:44 PM 35.6°F 35.6°F 100% 29.68 in 10.0 miles East 2.3 mph - N/A Rain Light Rain
9:58 PM 36.1°F 36.0°F 99% 29.70 in 7.0 miles SE 4.6 mph - 0.00 in Rain Light Rain
10:37 PM 35.6°F 35.6°F 100% 29.68 in 8.0 miles East 4.6 mph - N/A   Partly Cloudy
10:58 PM 37.0°F 36.9°F 99% 29.69 in 10.0 miles East 3.5 mph - 0.01 in   Mostly Cloudy
11:58 PM 36.7°F 36.5°F 99% 29.68 in 10.0 miles Calm Calm - N/A   Overcast
Moon Phase
Dec. 21 Dec. 28 Jan. 04 Jan. 11 Jan. 18
Sunrise:07:53 AM (PST) Moon Rise:12:27 PM (PST)
Sunset:04:23 PM (PST) Moon Set:01:29 AM (PST)

Copyright © 2014 The Weather Underground, Inc.